Weather History for Wooster, OH

Change the Weather History Date:

Friday, January 18, 2013

  Actual Average Record
Temperature  
Mean Temperature 24 °F -  
Max Temperature 32 °F 28 °F 46 °F (1999)
Min Temperature 17 °F 14 °F -6 °F (2005)
Degree Days  
Heating Degree Days 40    
Moisture  
Dew Point 15 °F    
Average Humidity 64    
Maximum Humidity 77    
Minimum Humidity 54    
Precipitation  
Precipitation 0.00 in - - ()
Sea Level Pressure  
Sea Level Pressure 30.37 in    
Wind  
Wind Speed 13 mph (SW)    
Max Wind Speed 21 mph    
Max Gust Speed 31 mph    
Visibility 10 miles    
Events      
Averages and records for this station are not official NWS values.
T = Trace of Precipitation, MM = Missing Value Source: NWS Daily Summary

Daily Weather History Graph

Daily Weather History Graph

Search for Another Location

Airport:

Trip Planner

Search our weather history database for the weather conditions in past years. The results will help you decide how hot, cold, wet, or windy it might be!

Date:

Astronomy

Jan. 18, 2013 Rise Set
Actual Time 7:48 AM EST 5:28 PM EST
Civil Twilight 7:18 AM EST 5:58 PM EST
Nautical Twilight 6:44 AM EST 6:31 PM EST
Astronomical Twilight 6:11 AM EST 7:04 PM EST
Moon 11:22 AM EST (1/18) 12:20 AM EST (1/18)
Length of Visible Light 10h 39m
Length of Day
9h 39m
Waxing Crescent, 47% of the Moon is Illuminated
Jan 18
Waxing Crescent
Jan 18
First Quarter
Jan 26
Full
Feb 3
Last Quarter
Feb 10
New

Hourly Weather History & Observations

Time (EST) Temp. Windchill Dew Point Humidity Pressure Visibility Wind Dir Wind Speed Gust Speed Precip Events Conditions
12:18 AM 24.8 °F 12.4 °F 15.8 °F 69% 30.25 in 10.0 mi NW 15.0 mph - N/A   Overcast
12:56 AM 23.0 °F 9.2 °F 15.1 °F 72% 30.33 in 10.0 mi WNW 17.3 mph 20.7 mph N/A   Overcast
2:56 AM 21.0 °F 8.6 °F 10.0 °F 63% 30.42 in 10.0 mi NW 12.7 mph - N/A   Overcast
3:56 AM 21.0 °F 7.6 °F 9.0 °F 60% 30.43 in 10.0 mi NW 15.0 mph - N/A   Overcast
4:56 AM 19.9 °F 8.6 °F 9.0 °F 62% 30.44 in 10.0 mi NW 10.4 mph - N/A   Partly Cloudy
5:56 AM 18.0 °F 9.8 °F 10.9 °F 74% 30.46 in 10.0 mi West 5.8 mph - N/A   Clear
6:56 AM 17.1 °F 10.0 °F 10.9 °F 77% 30.47 in 10.0 mi WSW 4.6 mph - N/A   Clear
7:56 AM 17.1 °F 11.7 °F 10.9 °F 77% 30.48 in 10.0 mi SW 3.5 mph - N/A   Clear
8:56 AM 19.0 °F 9.0 °F 12.0 °F 74% 30.50 in 10.0 mi SW 8.1 mph - N/A   Clear
9:56 AM 21.9 °F 15.7 °F 12.9 °F 68% 30.51 in 10.0 mi WSW 4.6 mph - N/A   Clear
10:56 AM 25.0 °F 18.1 °F 15.1 °F 66% 30.50 in 10.0 mi SW 5.8 mph - N/A   Clear
11:56 AM 28.0 °F 17.5 °F 16.0 °F 61% 30.46 in 10.0 mi SW 12.7 mph 19.6 mph N/A   Clear
12:56 PM 30.0 °F 20.5 °F 17.1 °F 59% 30.43 in 10.0 mi SW 11.5 mph - N/A   Clear
1:56 PM 30.9 °F 22.2 °F 18.0 °F 59% 30.40 in 10.0 mi South 10.4 mph - N/A   Partly Cloudy
2:56 PM 32.0 °F 21.2 °F 17.1 °F 54% 30.37 in 10.0 mi SSW 16.1 mph 23.0 mph N/A   Partly Cloudy
3:56 PM 32.0 °F 20.8 °F 17.1 °F 54% 30.34 in 10.0 mi SSW 17.3 mph 23.0 mph N/A   Clear
4:56 PM 30.9 °F 21.7 °F 17.1 °F 57% 30.32 in 10.0 mi SSW 11.5 mph - N/A   Clear
5:56 PM 30.0 °F 18.7 °F 18.0 °F 61% 30.31 in 10.0 mi SSW 16.1 mph 21.9 mph N/A   Clear
6:56 PM 30.0 °F 19.1 °F 19.0 °F 64% 30.30 in 10.0 mi SSW 15.0 mph 26.5 mph N/A   Clear
7:56 PM 28.9 °F 15.8 °F 19.0 °F 67% 30.29 in 10.0 mi SSW 20.7 mph 27.6 mph N/A   Clear
8:56 PM 28.9 °F 16.5 °F 19.0 °F 67% 30.26 in 10.0 mi SSW 18.4 mph 29.9 mph N/A   Clear
9:56 PM 30.0 °F 18.3 °F 18.0 °F 61% 30.23 in 10.0 mi SSW 17.3 mph 26.5 mph N/A   Clear
10:56 PM 30.9 °F 19.1 °F 19.0 °F 61% 30.19 in 10.0 mi SSW 18.4 mph 27.6 mph N/A   Clear
11:56 PM 32.0 °F 19.8 °F 19.0 °F 59% 30.17 in 10.0 mi SSW 20.7 mph 31.1 mph N/A   Clear